Wind_Speed
15 2 9 21 39 49 60 79 84 90 82 72 79 80 75 69 66 67 63 68 67 66 66 64 66 68 69 70 72 74 76 75 72 65 72 85 96 96 92 91 86 82 80 77 73
26 16 12 18 24 31 46 70 90 87 73 65 69 78 74 71 68 67 67 65 66 69 70 70 71 75 75 75 78 77 75 71 72 72 69 68 80 92 95 93 93 87 85 83 80
37 37 31 25 22 24 41 62 77 63 62 59 58 72 74 72 67 67 68 70 68 69 72 75 76 77 79 80 80 79 77 74 74 71 69 65 70 78 88 97 97 93 90 90 87
54 51 46 47 41 36 37 45 48 56 61 55 51 54 71 69 68 68 70 67 69 70 73 77 80 83 85 88 89 86 81 80 77 76 71 68 66 71 74 89 97 101 96 96 93
74 54 46 46 44 36 40 40 44 53 53 55 52 50 54 69 66 65 69 71 71 72 76 80 84 87 89 89 91 87 86 86 84 77 77 73 70 69 69 74 87 96 100 99 97
100 86 71 63 53 41 36 31 31 38 40 43 47 44 49 55 60 65 67 71 73 73 76 82 86 90 88 90 90 89 87 86 86 78 76 75 73 72 73 71 76 87 94 102 101
121 114 94 76 68 63 49 33 21 17 17 26 33 40 40 45 43 49 51 60 64 68 71 78 78 76 81 82 84 87 87 85 85 76 75 74 76 74 76 71 72 78 85 91 101
111 110 108 102 91 80 69 54 45 39 32 24 16 10 4 5 13 17 25 35 40 49 51 54 61 64 69 73 76 78 78 80 79 74 73 74 77 76 75 71 72 76 83 90 95
100 99 96 94 92 87 83 77 72 65 58 49 40 34 28 26 25 21 20 26 36 40 42 33 40 51 48 49 56 62 66 67 71 72 73 75 75 73 75 73 73 75 81 84 87
106 97 89 87 83 80 77 73 67 62 58 53 49 47 43 39 34 29 24 19 21 23 25 28 26 33 39 39 41 42 46 50 56 60 64 67 68 68 68 69 69 73 72 75 77
98 95 93 82 74 71 69 66 62 58 53 48 44 38 34 31 32 35 41 45 46 37 24 22 22 22 24 24 31 33 33 37 43 44 49 56 58 60 55 55 58 62 63 66 68
100 97 87 83 79 77 62 54 48 43 39 36 33 32 32 33 35 39 43 48 52 48 37 26 19 18 16 13 20 23 19 27 29 34 40 46 48 48 45 48 49 52 56 51 49
95 93 90 92 90 86 83 78 72 64 49 43 41 38 36 37 40 42 44 47 51 53 47 32 25 19 17 14 12 14 12 10 17 26 33 36 39 37 40 44 46 43 40 42 44
87 89 90 88 86 85 88 89 91 76 67 65 65 56 48 45 45 44 45 47 50 53 52 45 31 23 22 18 16 14 9 6 6 14 21 25 28 33 37 38 35 34 35 37 40
83 84 85 85 87 89 86 85 87 89 91 78 68 65 64 63 55 49 49 47 49 51 52 50 42 28 22 23 23 17 16 12 11 9 6 18 21 22 25 24 24 26 29 31 34
76 79 82 82 82 83 86 86 85 86 87 86 86 79 70 66 66 62 58 52 50 48 51 51 49 40 29 23 24 24 22 20 18 16 8 4 9 10 14 14 17 20 24 27 28
70 72 74 76 78 79 81 82 83 83 85 87 87 85 80 77 72 68 65 62 53 53 49 50 49 48 40 31 24 22 21 18 15 12 10 5 1 1 3 9 13 17 18 20 23
63 65 68 69 73 74 76 77 80 82 83 84 86 86 86 84 78 74 67 67 63 57 54 50 49 46 46 43 35 29 24 17 14 9 7 4 2 2 7 10 12 14 15 17 17
57 60 63 66 67 70 71 73 75 77 79 80 82 85 86 87 88 82 78 71 65 63 59 52 50 47 45 40 41 38 32 22 17 12 7 3 2 4 9 13 16 17 18 18 20
55 55 57 60 61 65 66 67 70 74 76 78 80 82 84 86 86 88 83 78 71 65 61 57 51 48 45 43 39 35 32 31 26 19 14 10 7 6 9 12 14 16 17 20 23
49 51 54 55 55 60 61 65 65 69 73 76 77 79 82 83 84 85 85 81 77 71 64 58 53 50 43 42 42 39 33 29 27 28 26 22 18 12 9 10 11 14 17 18 22
47 48 48 51 53 55 57 60 62 65 68 71 72 73 75 78 80 83 82 81 76 73 68 62 53 49 46 41 38 36 37 33 27 27 29 27 24 22 20 14 11 12 13 15 18
51 50 46 49 50 53 53 57 57 60 65 66 67 66 69 70 71 76 79 80 77 70 69 68 62 54 50 44 42 38 34 32 30 28 22 23 23 23 24 22 19 10 10 13 15
49 47 48 49 51 51 50 56 55 56 63 61 62 65 66 66 65 69 73 75 75 72 67 69 70 65 54 47 42 38 38 33 31 28 27 24 19 19 22 21 21 14 8 9 11
49 50 49 52 48 50 51 53 59 61 61 61 60 61 62 65 64 67 71 72 69 70 70 71 70 70 68 54 46 39 36 35 32 29 27 29 30 26 18 19 20 20 16 11 11
52 55 54 53 52 52 55 56 59 59 59 64 59 59 61 62 60 64 68 68 65 69 70 69 71 71 70 67 57 46 36 32 32 32 31 28 25 28 28 22 17 15 16 13 11
57 57 54 55 55 57 57 56 61 61 62 61 60 60 60 62 60 61 64 65 64 67 69 67 68 69 74 68 63 59 44 36 31 30 30 29 27 26 26 27 21 19 17 14 16
Wind_Direction
27 88 188 191 202 204 202 206 207 211 214 217 217 219 223 226 228 230 236 236 240 243 245 247 249 253 254 256 256 255 256 255 255 254 251 247 245 243 240 240 241 238 238 241 241
50 58 99 155 184 180 184 193 205 208 213 213 219 219 221 224 228 231 235 239 242 244 246 247 248 250 251 253 256 257 258 258 259 255 252 250 249 244 242 240 242 239 239 240 240
56 68 75 94 116 133 168 186 205 203 207 211 218 219 221 224 229 233 237 241 241 245 247 246 245 249 252 253 255 257 257 256 255 256 252 251 251 247 243 241 241 241 239 240 241
65 76 88 100 113 126 151 172 184 198 201 205 215 217 222 222 228 233 238 240 244 247 248 248 249 253 256 256 258 258 260 259 259 258 256 252 254 252 249 244 241 241 240 240 242
59 64 74 92 94 112 135 149 172 187 197 203 215 219 223 223 227 236 240 243 244 248 250 251 252 255 257 258 261 263 262 260 260 258 256 254 252 250 250 247 243 241 241 240 241
56 60 69 71 72 83 101 126 160 183 197 205 218 228 227 231 235 236 241 245 247 250 256 257 258 261 262 266 266 264 262 260 258 255 254 253 251 245 247 247 245 242 240 240 241
52 56 62 65 72 74 79 89 114 154 177 206 226 236 238 241 255 256 261 259 265 268 273 272 270 265 265 263 262 260 258 256 251 250 250 248 249 246 246 243 243 242 243 241 239
45 49 53 60 65 66 69 79 80 86 95 106 103 112 317 348 311 296 285 281 272 263 266 271 265 266 267 264 260 255 251 249 247 247 246 246 246 245 246 245 245 243 240 239 239
43 45 48 51 53 57 63 67 68 70 69 71 75 75 68 58 48 34 6 332 317 309 290 274 268 270 269 265 265 262 259 254 253 243 245 243 245 246 247 247 245 242 240 240 239
41 40 43 44 47 49 53 57 62 63 65 64 61 58 55 50 47 42 28 359 323 331 305 304 292 273 274 275 266 260 257 255 253 249 247 246 247 248 246 247 245 245 243 242 243
45 45 46 46 44 43 45 49 47 49 51 54 54 53 49 46 40 34 28 24 17 6 353 331 315 300 294 285 271 272 258 249 244 244 240 242 240 242 241 243 247 245 244 245 242
46 47 47 48 49 47 48 49 47 48 50 48 49 44 41 35 32 29 27 26 23 18 11 354 344 333 331 308 280 281 265 250 247 239 235 234 236 237 239 237 242 241 241 241 241
40 44 43 44 47 45 45 43 41 42 41 38 32 27 24 20 20 21 21 22 25 25 19 14 3 359 0 357 324 309 301 273 244 239 238 233 234 234 232 233 237 238 239 241 242
37 38 40 41 41 41 40 42 41 41 35 36 35 32 27 21 18 16 14 17 20 24 28 23 19 16 24 33 34 24 15 356 281 260 251 241 236 233 231 234 239 240 240 241 241
33 34 34 36 37 38 37 37 37 36 35 34 34 30 27 26 22 20 18 15 15 17 26 32 27 25 25 30 38 49 53 41 17 355 292 225 229 233 236 237 236 237 238 237 236
30 30 30 30 33 33 33 33 33 31 31 29 30 29 28 25 22 22 20 18 15 16 19 28 36 32 30 32 42 44 57 71 71 61 45 301 265 258 247 239 238 240 240 241 244
25 26 28 28 29 29 30 29 29 29 28 27 28 26 27 24 23 21 20 20 17 15 17 20 28 37 38 35 30 32 47 51 59 61 61 59 287 273 250 244 242 242 243 245 245
21 22 23 25 25 26 25 26 26 25 25 24 24 24 23 23 20 20 21 18 19 18 15 16 17 24 37 40 38 37 35 39 50 45 31 8 339 295 267 262 253 250 250 253 258
17 17 19 20 20 22 22 22 23 23 22 22 21 20 21 20 20 18 17 17 19 16 17 16 13 15 18 33 40 40 38 34 35 37 27 31 288 244 243 252 258 260 260 259 255
11 12 11 14 15 17 19 19 17 19 19 19 18 17 16 17 18 17 14 14 15 18 16 16 14 13 10 12 19 33 42 45 41 38 39 29 3 320 278 260 256 251 252 251 252
5 6 6 8 10 13 15 15 15 15 15 15 15 14 12 11 11 14 15 12 10 12 16 16 13 13 10 9 5 5 16 26 39 42 42 37 28 13 344 313 287 269 259 258 257
355 357 360 1 3 5 8 10 11 10 10 12 10 11 11 10 9 8 10 13 10 8 8 12 16 13 14 8 5 2 357 1 10 18 20 24 26 22 12 354 323 287 266 257 255
345 348 351 353 356 357 0 2 3 4 5 7 8 7 9 9 9 7 7 8 10 10 5 4 6 13 11 11 7 360 357 355 350 354 3 6 5 11 11 2 348 331 292 258 252
337 339 340 343 347 352 351 354 355 358 359 3 7 6 4 6 7 6 5 5 6 8 9 7 1 360 6 6 6 4 358 351 347 343 339 341 347 353 352 356 2 349 331 279 254
326 330 332 334 339 341 343 345 347 347 350 356 357 0 1 3 3 1 1 0 2 4 3 2 5 1 355 3 2 3 1 356 345 339 340 336 332 328 338 347 358 3 357 323 282
321 324 325 327 330 331 335 337 338 344 342 345 349 351 353 355 356 356 355 355 357 356 358 359 358 358 358 351 353 355 353 1 351 345 334 333 336 330 325 332 344 355 358 357 328
312 315 317 319 320 324 327 327 331 332 335 340 343 344 344 345 348 350 351 351 350 350 352 353 356 355 354 352 347 343 354 350 357 349 339 330 328 332 332 327 329 336 340 345 358
Height
10376 10377 10383 10395 10403 10419 10448 10484 10505 10514 10538 10570 10591 10606 10617 10627 10634 10642 10648 10652 10656 10659 10662 10664 10664 10664 10664 10665 10666 10668 10671 10675 10678 10688 10700 10706 10703 10714 10725 10728 10738 10744 10748 10753 10762
10382 10382 10388 10396 10408 10426 10452 10479 10490 10512 10547 10576 10590 10600 10613 10621 10629 10636 10642 10645 10648 10649 10649 10649 10650 10650 10651 10651 10653 10656 10660 10667 10670 10673 10679 10688 10686 10697 10707 10716 10721 10732 10738 10743 10748
10395 10395 10403 10411 10425 10442 10458 10478 10495 10535 10557 10573 10587 10597 10608 10617 10624 10630 10634 10635 10636 10637 10638 10638 10639 10639 10639 10640 10639 10642 10646 10653 10653 10660 10662 10672 10674 10680 10690 10696 10704 10716 10726 10727 10733
10417 10417 10420 10422 10430 10445 10465 10489 10519 10543 10556 10573 10584 10594 10605 10614 10620 10624 10625 10628 10629 10630 10630 10629 10630 10628 10626 10626 10625 10629 10632 10635 10639 10643 10648 10654 10663 10665 10672 10678 10686 10696 10707 10712 10718
10447 10450 10452 10451 10458 10469 10479 10501 10523 10543 10558 10572 10583 10593 10601 10609 10616 10620 10621 10622 10623 10623 10622 10619 10616 10613 10611 10610 10607 10612 10613 10617 10621 10628 10631 10637 10643 10649 10656 10658 10667 10678 10687 10696 10703
10479 10481 10479 10485 10493 10503 10514 10528 10541 10554 10570 10583 10589 10597 10606 10612 10616 10618 10619 10617 10616 10614 10611 10605 10601 10598 10596 10594 10592 10590 10591 10595 10600 10606 10615 10621 10624 10631 10634 10643 10650 10656 10667 10675 10684
10518 10515 10515 10520 10521 10527 10537 10551 10562 10572 10581 10589 10595 10600 10606 10612 10616 10617 10618 10617 10614 10609 10600 10592 10586 10578 10574 10573 10569 10568 10569 10572 10574 10587 10594 10603 10606 10614 10618 10628 10632 10639 10647 10656 10665
10550 10548 10549 10548 10550 10557 10564 10572 10578 10584 10590 10598 10604 10608 10613 10615 10616 10617 10617 10612 10604 10591 10582 10573 10566 10558 10551 10549 10547 10544 10547 10551 10561 10568 10577 10586 10587 10596 10601 10613 10617 10622 10627 10632 10640
10578 10575 10574 10576 10576 10578 10581 10588 10592 10595 10600 10605 10608 10614 10617 10617 10616 10614 10611 10603 10589 10576 10568 10557 10551 10543 10537 10533 10530 10530 10531 10538 10544 10552 10558 10566 10571 10581 10584 10593 10600 10604 10608 10616 10624
10605 10596 10594 10595 10596 10596 10597 10597 10600 10605 10608 10611 10613 10613 10614 10614 10615 10615 10611 10600 10587 10572 10558 10547 10539 10532 10525 10520 10516 10516 10516 10523 10528 10535 10545 10553 10558 10564 10573 10576 10584 10586 10595 10600 10607
10633 10627 10621 10619 10618 10616 10612 10611 10615 10616 10617 10618 10621 10623 10625 10623 10619 10612 10603 10590 10577 10561 10550 10541 10532 10524 10518 10513 10509 10507 10509 10512 10516 10522 10534 10537 10545 10549 10559 10567 10568 10574 10579 10585 10590
10657 10654 10651 10649 10647 10644 10641 10637 10638 10636 10634 10634 10632 10629 10625 10619 10613 10605 10596 10586 10575 10562 10549 10537 10527 10520 10513 10508 10505 10502 10503 10506 10511 10517 10522 10528 10535 10541 10548 10552 10556 10559 10563 10574 10582
10678 10673 10669 10665 10660 10659 10655 10651 10648 10644 10641 10637 10633 10629 10623 10618 10610 10602 10594 10585 10574 10563 10551 10538 10528 10520 10514 10508 10504 10500 10501 10503 10507 10512 10517 10525 10531 10537 10539 10541 10544 10551 10559 10565 10570
10690 10685 10680 10675 10670 10667 10662 10657 10652 10648 10647 10641 10635 10628 10622 10615 10608 10603 10596 10586 10575 10566 10553 10540 10530 10522 10517 10511 10506 10503 10502 10505 10508 10513 10518 10525 10529 10532 10533 10536 10543 10549 10553 10558 10564
10700 10694 10690 10685 10680 10676 10671 10665 10661 10655 10652 10644 10639 10633 10626 10618 10610 10602 10595 10587 10579 10570 10559 10547 10536 10528 10523 10518 10515 10511 10509 10511 10514 10518 10522 10525 10527 10532 10534 10538 10542 10545 10550 10554 10558
10707 10702 10697 10691 10686 10681 10676 10672 10667 10662 10658 10650 10642 10635 10629 10623 10615 10605 10593 10586 10580 10573 10563 10555 10543 10535 10529 10525 10521 10520 10518 10517 10519 10523 10527 10529 10532 10534 10536 10538 10541 10545 10549 10552 10556
10714 10709 10703 10699 10693 10687 10682 10678 10673 10669 10663 10656 10650 10642 10635 10626 10620 10612 10602 10592 10584 10575 10567 10561 10554 10544 10537 10532 10527 10524 10523 10524 10524 10525 10527 10530 10532 10534 10535 10538 10541 10543 10546 10549 10552
10721 10717 10711 10705 10700 10694 10688 10684 10678 10671 10666 10660 10654 10648 10640 10631 10623 10615 10609 10600 10588 10579 10572 10565 10560 10555 10548 10540 10535 10531 10529 10527 10526 10528 10529 10530 10532 10534 10536 10537 10538 10540 10542 10545 10548
10727 10722 10716 10710 10704 10698 10693 10688 10683 10677 10670 10663 10658 10651 10645 10638 10629 10620 10612 10605 10597 10586 10577 10570 10565 10560 10555 10552 10546 10541 10536 10535 10533 10532 10531 10532 10532 10533 10534 10534 10536 10537 10539 10542 10543
10730 10725 10720 10714 10708 10703 10697 10691 10685 10680 10675 10668 10661 10656 10650 10644 10637 10627 10617 10609 10602 10596 10586 10578 10571 10565 10561 10556 10554 10551 10549 10545 10540 10536 10534 10533 10533 10532 10531 10530 10531 10531 10533 10534 10535
10732 10728 10723 10718 10713 10707 10702 10695 10690 10684 10679 10673 10667 10659 10653 10646 10640 10635 10625 10614 10607 10601 10596 10589 10579 10573 10567 10563 10558 10555 10552 10549 10546 10543 10539 10536 10534 10531 10530 10528 10528 10527 10527 10528 10528
10735 10729 10725 10720 10716 10710 10704 10699 10693 10687 10681 10676 10670 10665 10657 10651 10645 10638 10632 10625 10614 10606 10600 10594 10590 10582 10574 10569 10565 10562 10557 10553 10548 10545 10540 10538 10537 10534 10530 10528 10526 10524 10523 10524 10523
10733 10729 10725 10721 10717 10711 10707 10702 10696 10690 10685 10678 10673 10668 10662 10654 10648 10642 10636 10629 10622 10614 10604 10598 10594 10588 10580 10575 10569 10565 10561 10557 10554 10549 10545 10540 10538 10534 10531 10529 10525 10521 10519 10518 10518
10731 10727 10724 10720 10715 10711 10706 10702 10696 10692 10687 10680 10675 10670 10664 10659 10653 10646 10639 10633 10626 10619 10612 10603 10596 10591 10589 10582 10574 10568 10563 10559 10555 10551 10548 10543 10539 10536 10532 10528 10525 10521 10518 10515 10514
10726 10723 10719 10717 10712 10709 10705 10700 10696 10690 10686 10683 10676 10671 10665 10660 10654 10649 10642 10635 10629 10622 10615 10609 10602 10593 10586 10585 10579 10571 10566 10560 10556 10551 10548 10544 10540 10536 10533 10530 10525 10521 10517 10514 10513
10719 10717 10714 10711 10708 10705 10702 10697 10694 10690 10685 10679 10677 10671 10666 10660 10655 10650 10644 10638 10631 10623 10619 10611 10604 10598 10590 10582 10579 10574 10566 10561 10556 10551 10546 10543 10541 10537 10532 10529 10527 10524 10521 10517 10513
10711 10710 10706 10703 10701 10699 10696 10693 10689 10685 10681 10677 10673 10668 10663 10659 10653 10647 10642 10638 10632 10626 10619 10613 10606 10600 10594 10588 10578 10569 10569 10562 10555 10550 10545 10540 10537 10535 10532 10527 10525 10522 10519 10517 10513